www.pogodaiklimat.ru

Погода и климат >> Архив погоды >> Россия >> Приморский край >> Кавалерово


ПОГОДА в Кавалерово

  • Прогноз погоды в Кавалерово
  • Монитор погоды в Кавалерово

АРХИВ ПОГОДЫ в Кавалерово

Время (UTC), дата Ветер
(напр.,м/с)
 
Видим.   Явления Облачность Т
(С)
Тd
(С)
f
(%)
Тe
(С)
Тes
(С)
Комфортность P
(гПа)
Po
(гПа)
Тmin
(С)
Tmax
(С)
R
(мм)
R24
(мм)
S
(см)
12 15.01 З 9
{15}
2 балла 49 988.0
15 15.01 З 7
{15}
ясно 42 989.3
18 15.01 З 7
{14}
ясно 43 990.7
21 15.01 З 5
{13}
ясно 54 990.7
00 16.01 З 5
{15}
50 км ясно -16.1 -25.8 43 -25 -25 1019.4 992.0 -17.8
03 16.01 З 5
{14}
ясно 29 988.0
06 16.01 З 8
{14}
50 км 2 балла -10.5 -22.7 36 -20 -20 1013.4 986.7
09 16.01 СВ 1
{12}
50 км 1 балл -12.7 -21.9 46 -15 -15 1013.6 986.7 -10.2
12 16.01 СЗ 1
{15}
50 км 2 балла -17.1 -21.7 67 -20 -20 1012.7 985.3
15 16.01 З 7
{12}
10 км слаб. ливневой снег 9 баллов -11.5 -16.9 64 -21 -21 1010.7 984.0
18 16.01 З 8
{19}
8 баллов 49 984.0
21 16.01 СЗ 8
{15}
50 км 10 баллов -17.7 -25.4 51 -29 -29 1011.4 984.0 -17.7 0.2
00 17.01 СЗ 9
{19}
50 км 7 баллов -19.9 -30.3 39 -33 -33 опасность
обморожения
1013.0 985.3 -19.9
03 17.01 СЗ 11
{22}
50 км позёмок 7 баллов -20.4 -32.1 34 -35 -35 опасность
обморожения
1013.0 985.3
06 17.01 З 10
{19}
50 км 5 баллов -19.9 -32.6 31 -33 -33 опасность
обморожения
1013.0 985.3
09 17.01 З 10
{20}
50 км ясно -20.3 -30.4 40 -34 -34 опасность
обморожения
1015.8 988.0 -17.7
12 17.01 З 6
{22}
50 км ясно -19.9 -31.1 36 -31 -31 опасность
обморожения
1018.5 990.7
15 17.01 З 7
{14}
50 км ясно -19.2 -30.5 36 -31 -31 опасность
обморожения
1019.8 992.0
18 17.01 З 9
{14}
50 км ясно -19.0 -29.4 39 -32 -32 опасность
обморожения
1021.1 993.3
21 17.01 З 8
{14}
50 км ясно -19.2 -28.6 43 -31 -31 опасность
обморожения
1021.1 993.3 -20.4
00 18.01 З 9
{15}
50 км ясно -17.5 -28.1 39 -30 -30 1022.4 994.7
03 18.01 З 8
{16}
ясно 30 993.3
06 18.01 З 7
{14}
50 км ясно -10.9 -26.2 27 -20 -20 1020.2 993.3
09 18.01 З 5
{14}
ясно 33 996.0
12 18.01 З 5
{16}
ясно 38 997.3
15 18.01 З 4 50 км ясно -13.9 -24.5 40 -21 -21 1024.7 997.3
18 18.01 З 4 50 км ясно -14.0 -24.4 41 -22 -22 1024.7 997.3
21 18.01 С 2 50 км ясно -15.7 -24.6 46 -21 -21 1024.9 997.3 -16.3
00 19.01 С 1
{10}
50 км ясно -12.6 -24.5 36 -15 -13 1024.5 997.3
03 19.01 З 4 50 км ясно -6.5 -25.7 20 -12 -9 1022.6 996.0
06 19.01 З 4 50 км ясно -4.5 -26.5 16 -10 -9 1019.6 993.3
09 19.01 З 1 50 км ясно -14.1 -26.2 35 -17 -17 1020.6 993.3 -4.4
12 19.01 С 1
{8}
50 км 6 баллов -17.5 -25.0 52 -20 -20 1020.9 993.3
15 19.01 штиль 0 50 км 10 баллов -18.6 -23.9 63 -19 -19 1019.7 992.0
18 19.01 штиль 0 50 км 10 баллов -16.9 -23.4 57 -17 -17 1016.8 989.3
21 19.01 штиль 0 50 км 10 баллов -17.8 -22.4 67 -18 -18 1015.5 988.0 -19.9
00 20.01 З 5
{7}
50 км ясно -11.3 -19.2 52 -19 -18 1013.5 986.7
03 20.01 СЗ 8
{14}
50 км 6 баллов -9.3 -21.6 36 -19 -18 1010.5 984.0
06 20.01 З 7
{15}
50 км 5 баллов -10.8 -19.2 50 -20 -20 1010.7 984.0
09 20.01 З 6
{14}
50 км 7 баллов -13.5 -21.9 49 -23 -23 1012.3 985.3 -8.0
12 20.01 З 4
{15}
50 км 6 баллов -13.8 -22.0 50 -21 -21 1012.3 985.3
15 20.01 З 3
{12}
50 км 7 баллов -14.1 -22.2 50 -21 -21 1012.3 985.3
18 20.01 З 6 50 км 6 баллов -14.4 -20.4 60 -24 -24 1012.4 985.3
21 20.01 З 3
{11}
50 км 4 балла -15.1 -22.7 52 -22 -22 1012.5 985.3 -15.2
00 21.01 З 6
{12}
50 км 2 балла -14.5 -23.1 48 -24 -24 1012.4 985.3 -15.5
03 21.01 З 7
{12}
50 км 1 балл -11.8 -21.3 45 -21 -20 1012.1 985.3
06 21.01 З 6
{14}
50 км 1 балл -9.9 -21.8 37 -18 -18 1010.6 984.0
09 21.01 З 6
{11}
50 км ясно -11.8 -21.6 44 -21 -21 1012.1 985.3 -9.8
12 21.01 З 6
{15}
50 км ясно -12.9 -21.8 47 -22 -22 1013.7 986.7
15 21.01 З 6
{11}
50 км ясно -13.2 -21.9 48 -22 -22 1013.7 986.7
18 21.01 З 5 50 км ясно -13.8 -22.0 50 -22 -22 1013.8 986.7
21 21.01 З 4 50 км ясно -13.7 -22.6 47 -21 -21 1015.1 988.0 -14.0
00 22.01 З 4
{11}
50 км ясно -12.0 -22.3 42 -19 -18 1014.9 988.0 -18.1
03 22.01 З 6 50 км 7 баллов -7.0 -21.6 30 -14 -14 1013.1 986.7
06 22.01 З 6
{11}
50 км 9 баллов -4.6 -20.7 27 -11 -11 1011.4 985.3
09 22.01 С 1
{11}
50 км 4 балла -12.0 -20.8 48 -14 -14 1012.1 985.3 -4.4

 

Местоположение метеостанции Кавалерово (Приморский край, Россия): широта 44.25 долгота 135.00 высота над уровнем моря 206 м.

В архиве по умолчанию представлена погода в Кавалерово за последнюю неделю. Архивные данные за месяц целиком и за предыдущие месяцы, начиная с января 2011 года, Вы можете получить, выбрав интересующий диапазон дат из раскрывающегося списка и нажав кнопку "Ввод!".


*Определитесь, кто Вы:
робот инопланетянин человек

Внимание! Время в таблицах - всемирное. Для получения местного времени необходимо прибавить поправку, которая равна 10 ч.

Смотрите также архив погоды в соседних городах и на ближайших метеорологических станциях:

Погода в Богополе (Приморский край, Россия) (32 км)
Погода в Ольге (Приморский край, Россия) (61 км)
Погода в Рудной Пристани (Приморский край, Россия) (65 км)
Погода в Дальнегорске (Приморский край, Россия) (90 км)
Погода в Чугуевке (Приморский край, Россия) (96 км)
Погода в Лучегорске (Приморский край, Россия) (99 км)
Погода в Лазо (Приморский край, Россия) (135 км)
Погода в Мельничном (Приморский край, Россия) (139 км)
Погода в Малиново (Приморский край, Россия) (145 км)
Погода в Тернее (Приморский край, Россия) (152 км)

Пояснения к столбцам:

Ветер - указаны скорость ветра в м/с - средняя за 10 мин, порывы в срок и между сроками (в фигурных скобках) и направление, откуда дует ветер: С - северный, СВ - северо-восточный, В - восточный, ЮВ - юго-восточный, Ю - южный, ЮЗ - юго-западный, З - западный, СЗ - северо-западный.
Видимость - горизонтальная дальность видимости в метрах или километрах. При видимости от 1 до 10 км при отсутствии осадков обычно наблюдается дымка, при ухудшении видимости до 1 км и менее - туман. В сухую погоду видимость может ухудшаться дымом, пылью или мглою.
Явления - указаны атмосферные явления, наблюдавшиеся в срок или в последний час перед сроком; фигурными скобками обозначены явления, наблюдавшиеся между сроками (за 1-3 часа до срока); квадратными скобками обозначены град или гололедные отложения с указанием их диаметра в мм.
Облачность - указаны через наклонную черту общая и нижняя облачность в баллах и высота нижней границы облаков в метрах; квадратными скобками обозначены формы облаков: Ci - перистые, Cs - перисто-слоистые, Cc - перисто-кучевые, Ac - высококучевые, As - высокослоистые, Sc - слоисто-кучевые, Ns - слоисто-дождевые, Cu - кучевые, Cb - кучево-дождевые. Подробнее классификацию облаков см. в Атласе облаков (PDF).
T - Температура воздуха - температура, измеренная на высоте 2 м над землей.
Td - Температура точки росы - температура, при понижении до которой содержащийся в воздухе водяной пар достигнет насыщения.
f - Относительная влажность воздуха - влажноcть воздуха, измеренная на высоте 2 м над землей.
Te - Эффективная температура - температура, которую ощущает одетый по сезону человек в тени. Характеристика душности погоды. При расчете учитывается влияние влажности воздуха и скорости ветра на теплоощущения человека.
Tes - Эффективная температура на солнце - температура, которую ощущает человек, с поправкой на солнечный нагрев. Характеристика знойности погоды. Зависит от высоты солнца над горизонтом, облачности и скорости ветра. Ночью, в пасмурную погоду, а также при ветре 12 м/с и более поправка равна нулю.
P - Атмосферное давление - приведенное к уровню моря атмосферное давление.
Po - Атмосферное давление - измеренное на уровне метеостанции атмосферное давление.
Tmin - Минимальная температура - минимум температуры воздуха на высоте 2 м над землей.
Tmax - Максимальная температура - максимум температуры воздуха на высоте 2 м над землей.
R - Количество осадков - Количество выпавших осадков за период времени, мм. При наведении курсора мыши на число - период времени, за который выпало указанное количество осадков.
R24 - Количество осадков - Количество выпавших осадков за 24 часа, мм.
S - Снежный покров - Высота снежного покрова, см. При наведении курсора мыши на число - состояние снежного покрова и степень покрытия местности в баллах.